| time (UTC) | temp C | wind direction | speed KPH | gust KPH | rain 1hr cm | rain 24hr cm | rain mn cm | humidity % | barometer mb |
| 20260503031310 | 23 | 266 | 0.0 | 6.4 | 0.00 | 0.00 | 0.00 | 69 | 1008.6 |
| 20260503024310 | 22 | 274 | 0.0 | 3.2 | 0.00 | 0.00 | 0.00 | 72 | 1009.1 |
| 20260503021310 | 22 | 241 | 0.0 | 3.2 | 0.00 | 0.00 | 0.00 | 74 | 1009.7 |
| 20260503014310 | 22 | 254 | 0.0 | 0.0 | 0.00 | 0.00 | 0.00 | 73 | 1010.0 |
| 20260503011310 | 22 | 259 | 1.6 | 3.2 | 0.00 | 0.00 | 0.00 | 71 | 1010.3 |
| 20260503004310 | 22 | 74 | 0.0 | 6.4 | 0.00 | 0.00 | 0.00 | 71 | 1010.4 |
| 20260503001310 | 21 | 102 | 4.8 | 16.1 | 0.00 | 0.00 | 0.00 | 74 | 1010.7 |
| 20260502234310 | 21 | 311 | 0.0 | 3.2 | 0.00 | 0.00 | 0.00 | 77 | 1010.9 |
| 20260502231310 | 20 | 323 | 0.0 | 0.0 | 0.00 | 0.00 | 0.00 | 81 | 1011.1 |
| 20260502224310 | 18 | 323 | 0.0 | 0.0 | 0.00 | 0.00 | 0.00 | 83 | 1011.1 |
| 20260502221310 | 17 | 323 | 0.0 | 0.0 | 0.00 | 0.00 | 0.00 | 87 | 1011.1 |
| 20260502214310 | 15 | 323 | 0.0 | 0.0 | 0.00 | 0.00 | 0.00 | 90 | 1011.0 |
| 20260502211310 | 13 | 323 | 0.0 | 0.0 | 0.00 | 0.00 | 0.00 | 92 | 1010.9 |
| 20260502204310 | 12 | 323 | 0.0 | 0.0 | 0.00 | 0.00 | 0.00 | 90 | 1010.6 |
| 20260502201310 | 12 | 323 | 0.0 | 0.0 | 0.00 | 0.00 | 0.00 | 90 | 1010.3 |
| 20260502194310 | 12 | 323 | 0.0 | 0.0 | 0.00 | 0.00 | 0.00 | 89 | 1010.6 |
| 20260502191310 | 12 | 323 | 0.0 | 0.0 | 0.00 | 0.00 | 0.00 | 88 | 1010.2 |
| 20260502184310 | 12 | 323 | 0.0 | 0.0 | 0.00 | 0.00 | 0.00 | 87 | 1010.3 |
| 20260502181310 | 12 | 323 | 0.0 | 0.0 | 0.00 | 0.00 | 0.00 | 86 | 1010.4 |
| 20260502164310 | 11 | 323 | 0.0 | 0.0 | 0.00 | 0.00 | 0.00 | 85 | 1009.9 |
| 20260502161310 | 11 | 323 | 0.0 | 0.0 | 0.00 | 0.00 | 0.00 | 83 | 1010.2 |
| 20260502151310 | 12 | 323 | 0.0 | 0.0 | 0.00 | 0.00 | 0.00 | 77 | 1010.3 |
| 20260502121310 | 17 | 323 | 0.0 | 0.0 | 0.00 | 0.00 | 0.00 | 50 | 1009.3 |
| 20260502114310 | 18 | 323 | 0.0 | 0.0 | 0.00 | 0.00 | 0.00 | 40 | 1008.7 |
| 20260502111310 | 18 | 323 | 0.0 | 0.0 | 0.00 | 0.00 | 0.00 | 42 | 1008.3 |
| 20260502104310 | 18 | 323 | 0.0 | 0.0 | 0.00 | 0.00 | 0.00 | 44 | 1008.0 |
| 20260502101310 | 20 | 323 | 0.0 | 0.0 | 0.00 | 0.00 | 0.00 | 41 | 1008.0 |
| 20260502091310 | 22 | 323 | 0.0 | 0.0 | 0.00 | 0.00 | 0.00 | 36 | 1007.3 |
| 20260502071310 | 27 | 302 | 0.0 | 3.2 | 0.00 | 0.00 | 0.00 | 33 | 1005.8 |
| 20260502064310 | 27 | 331 | 1.6 | 9.7 | 0.00 | 0.00 | 0.00 | 31 | 1005.2 |
| 20260502061310 | 27 | 341 | 3.2 | 9.7 | 0.00 | 0.00 | 0.00 | 32 | 1004.8 |
| 20260502054310 | 27 | 344 | 3.2 | 6.4 | 0.00 | 0.00 | 0.00 | 32 | 1004.4 |
| 20260502051310 | 27 | 331 | 3.2 | 16.1 | 0.00 | 0.00 | 0.00 | 28 | 1004.1 |
| 20260502044310 | 27 | 341 | 4.8 | 22.5 | 0.00 | 0.00 | 0.00 | 28 | 1003.8 |
| 20260502041310 | 27 | 345 | 0.0 | 6.4 | 0.00 | 0.00 | 0.00 | 29 | 1003.9 |
| 20260502034310 | 26 | 347 | 1.6 | 3.2 | 0.00 | 0.00 | 0.00 | 30 | 1003.4 |